Temperature
20 18 17 18 18 19 19 19 19 19 20 20 20 19 20 20 21 20 20 21 21 21 21 20 20 20 19 19 18 18 17 16 16 16 15 15 15 14 14 14 14 14 13 13
18 18 19 19 20 19 19 19 19 20 21 20 19 20 20 20 20 21 21 21 21 21 20 20 20 20 19 19 18 18 17 16 16 16 15 15 14 14 14 14 14 13 13 13
19 20 21 20 20 19 19 19 19 20 21 21 20 20 20 20 21 21 21 22 21 21 21 20 20 20 19 19 18 18 17 16 16 15 15 15 14 14 14 14 14 13 13 13
19 20 21 20 20 20 19 20 21 21 20 19 20 19 20 20 20 20 21 21 21 21 21 21 20 20 19 19 18 18 17 16 16 15 15 15 14 14 14 14 14 13 13 13
20 20 20 20 21 21 20 21 21 20 19 19 19 19 19 19 20 20 20 21 22 22 21 21 20 20 19 19 18 18 17 16 16 15 15 15 14 14 14 14 14 13 13 13
20 21 21 21 22 22 21 20 19 18 17 18 19 19 19 18 20 20 20 21 22 22 21 21 20 20 19 19 18 18 17 16 16 15 15 15 14 14 14 14 14 14 13 13
20 21 22 22 21 21 20 18 17 18 17 18 19 19 19 20 21 21 20 21 22 22 21 21 20 20 19 19 18 18 17 16 16 15 15 15 14 14 14 14 14 14 13 13
19 20 21 22 22 21 20 18 18 18 18 18 19 19 20 21 22 22 22 22 22 21 21 21 20 20 19 19 18 18 17 16 16 15 15 15 14 14 14 14 14 14 13 13
19 20 22 23 23 22 20 18 18 17 18 18 18 20 21 22 21 21 21 21 21 21 21 21 21 20 20 19 18 18 17 17 16 15 15 15 15 14 14 14 14 14 14 13
20 20 22 23 23 22 21 19 17 17 18 18 19 20 19 21 21 21 20 20 21 22 22 21 21 20 20 19 19 18 17 17 16 16 15 15 15 14 14 14 14 14 14 14
20 20 21 22 22 22 22 21 18 16 17 18 19 19 20 21 21 20 20 21 22 22 22 22 21 21 20 19 19 18 17 17 16 16 15 15 15 14 14 14 14 14 14 14
20 18 19 20 21 22 22 21 19 18 18 17 17 18 21 20 21 21 22 22 23 23 22 22 21 21 20 19 19 18 18 17 16 16 15 15 15 15 14 14 14 14 14 14
20 18 18 19 20 21 22 23 20 18 17 17 17 19 21 20 21 22 23 23 23 23 22 22 21 21 20 20 19 18 18 17 17 16 16 15 15 15 14 14 14 14 14 14
19 18 18 19 20 20 21 22 22 19 18 18 19 20 21 21 21 21 23 23 23 23 22 22 21 21 21 20 19 19 18 17 17 16 16 16 15 15 15 14 14 14 14 14
19 19 20 20 21 21 22 22 22 21 19 19 20 20 21 20 20 21 23 23 22 22 22 22 22 21 21 20 20 19 18 18 17 17 16 16 15 15 15 14 14 14 14 14
18 19 19 20 21 21 21 21 21 21 21 20 20 20 20 21 22 21 22 22 22 22 22 22 22 21 21 20 20 19 18 18 17 17 16 16 16 15 15 15 14 14 14 14
17 18 18 18 19 20 20 21 21 21 21 21 20 20 20 21 20 21 22 22 22 22 22 22 22 22 21 21 20 20 19 18 18 17 17 16 16 15 15 15 14 14 14 14
18 17 16 17 19 20 20 20 21 21 21 20 20 20 20 21 22 22 22 22 22 22 22 22 22 22 21 21 20 20 19 18 18 17 17 17 16 16 15 15 15 14 14 14
17 17 16 16 18 18 20 21 21 21 20 19 19 19 20 21 21 21 22 22 22 22 22 22 22 22 21 21 20 20 19 18 18 18 17 17 16 16 15 15 15 15 14 14
16 16 16 16 18 18 19 20 21 20 19 19 19 19 19 19 17 18 21 21 22 22 22 22 22 21 21 21 20 19 19 18 18 18 18 17 17 16 16 15 15 15 14 14
17 16 16 16 16 17 18 19 20 18 18 19 19 20 20 18 18 20 21 21 21 21 21 21 21 21 21 20 20 19 19 19 18 18 18 17 17 17 16 16 15 15 15 14
16 16 15 14 16 16 18 19 18 17 19 19 19 19 19 19 20 20 20 20 20 20 20 21 20 20 20 20 20 19 19 19 18 18 18 17 17 17 16 16 15 15 15 14
15 15 15 15 15 17 18 18 19 19 19 19 19 19 19 19 19 19 19 19 19 20 20 20 20 20 20 20 19 19 19 19 18 18 17 17 17 17 16 16 15 15 15 14
14 15 14 15 15 16 17 18 18 18 18 18 18 18 18 18 18 18 18 18 19 19 19 19 19 19 19 19 19 19 18 18 18 18 17 17 17 16 16 16 15 15 15 14
14 14 14 14 14 16 16 17 17 17 17 17 17 17 17 17 17 17 17 17 18 18 18 18 18 18 18 18 18 18 18 18 18 17 17 17 16 16 16 16 15 15 15 15
13 14 13 13 15 14 15 16 16 16 16 16 16 16 16 16 16 16 16 16 17 17 17 17 17 17 18 18 18 17 17 17 17 17 17 16 16 16 16 15 15 15 14 14
Wind_Speed
3 4 3 5 7 5 3 2 3 5 4 2 4 6 7 8 7 8 8 8 9 9 7 8 9 10 10 9 8 8 7 4 3 2 2 1 1 1 1 1 1 1 1 2
4 2 6 6 5 4 1 2 3 4 3 3 4 7 7 8 10 10 11 11 11 8 7 8 9 9 9 9 8 7 7 5 4 3 2 2 1 1 1 2 2 2 1 2
5 4 5 6 5 3 3 4 5 4 2 1 1 4 3 4 5 6 7 9 11 13 13 11 10 9 9 9 9 9 7 6 5 3 2 2 3 3 2 2 2 3 2 2
2 2 3 4 4 4 3 7 6 3 0 2 1 2 5 3 5 7 9 9 10 12 12 12 12 10 10 9 9 9 8 6 5 4 4 3 2 1 2 2 2 4 3 3
2 3 5 3 4 6 6 4 2 1 1 2 2 1 6 0 5 9 10 9 10 12 13 14 13 12 10 9 9 8 8 6 5 4 5 4 2 2 2 1 2 3 4 4
2 2 3 3 3 4 2 3 4 5 4 2 3 2 4 4 8 8 8 8 9 10 11 11 10 9 8 8 8 8 8 6 5 5 5 4 3 2 1 1 2 2 3 3
4 3 1 2 2 2 4 5 4 5 4 4 3 1 6 7 7 9 10 9 9 10 11 11 10 10 10 10 9 8 9 6 5 5 4 4 4 3 3 2 2 2 2 3
2 3 3 3 4 4 2 7 6 3 2 4 4 1 6 6 2 5 8 9 9 10 11 12 13 12 12 11 10 9 9 7 6 5 5 4 4 3 2 3 2 3 3 3
2 3 3 3 3 6 3 2 6 6 1 2 4 4 6 4 3 4 7 8 10 11 11 12 11 11 11 11 11 11 10 8 7 6 5 4 4 3 3 2 2 2 2 2
4 1 3 2 3 2 5 6 5 4 2 1 4 3 4 5 4 4 7 9 10 10 10 11 11 11 11 11 10 10 9 9 7 7 6 5 4 4 3 2 2 2 2 1
3 2 4 3 1 2 1 3 4 4 4 4 1 6 6 8 8 8 9 10 11 11 11 11 11 11 10 9 9 9 9 8 7 7 5 5 4 3 2 2 2 2 2 1
2 4 1 5 6 3 4 4 6 3 1 3 3 6 7 6 7 7 9 9 9 11 11 11 10 10 9 10 9 9 9 8 8 7 6 5 4 3 3 2 2 2 2 1
4 5 3 7 7 5 1 1 5 5 4 3 3 6 6 4 3 4 6 7 7 8 8 8 9 10 10 11 10 10 9 9 8 7 7 5 5 4 4 3 2 2 1 1
4 4 5 5 6 4 4 3 2 5 3 3 6 7 7 6 5 5 5 6 6 7 9 9 10 10 10 11 10 10 10 9 9 8 7 7 6 6 5 4 3 2 1 1
4 2 3 5 6 3 4 5 4 4 7 7 8 7 9 7 6 6 5 4 5 6 7 10 11 10 10 9 9 9 9 9 9 9 8 8 7 6 5 4 3 2 1 2
3 1 3 5 5 4 5 6 5 5 4 5 4 6 7 4 1 1 2 4 5 7 8 9 10 10 11 11 11 10 10 10 9 10 9 8 7 6 5 5 4 3 2 1
2 2 2 4 7 5 4 5 3 2 2 4 5 6 5 1 1 2 2 3 4 6 6 8 9 11 11 12 12 12 11 9 10 10 9 8 8 7 6 5 4 4 3 2
4 2 2 1 4 2 7 4 2 2 2 2 1 3 3 3 3 1 1 3 3 3 5 6 7 9 9 9 9 10 9 9 10 10 9 9 9 8 7 5 5 5 3 3
7 6 3 2 1 5 7 6 2 1 3 6 3 4 4 3 4 5 4 2 4 5 5 6 7 7 7 8 9 9 9 9 10 10 10 10 10 9 7 7 6 5 3 3
4 5 5 3 2 4 6 8 5 4 3 7 4 4 4 6 4 5 7 5 4 3 3 3 3 4 6 7 8 9 10 10 11 12 11 10 10 10 9 9 7 4 4 4
3 3 3 4 4 5 6 7 4 3 4 5 3 3 3 1 3 6 6 5 4 3 2 1 2 4 6 6 7 9 9 12 13 11 9 9 10 10 9 8 5 4 4 4
2 1 1 3 3 5 6 4 2 4 3 2 2 3 2 2 4 4 4 5 5 5 3 1 1 3 4 5 8 8 10 10 8 8 9 9 9 9 8 7 6 5 5 5
1 3 4 5 5 3 3 1 1 1 0 2 2 3 3 3 4 5 5 5 5 5 5 3 2 3 3 4 7 9 9 7 7 8 8 8 8 8 8 8 8 5 5 5
4 2 1 2 4 5 4 4 4 3 2 3 2 3 4 4 5 5 5 5 6 5 5 4 3 3 5 5 6 7 6 6 8 9 9 8 7 7 6 6 7 7 6 6
5 3 2 4 5 5 4 5 4 4 4 4 4 3 3 4 5 5 5 6 6 6 5 4 4 5 6 5 6 5 5 6 7 8 8 7 7 7 6 5 5 7 7 8
5 5 5 7 6 4 6 5 4 3 4 4 4 5 5 4 5 6 6 6 6 6 5 5 5 6 6 5 6 5 6 7 7 6 7 6 6 6 6 5 3 2 4 7
Wind_Direction
116 95 167 190 176 171 186 194 239 253 226 194 228 249 242 222 207 199 194 194 188 189 181 161 152 146 139 138 138 139 138 143 124 100 94 81 35 338 341 320 338 360 3 15
80 183 210 183 166 155 182 221 252 277 243 204 251 257 244 211 207 198 192 191 190 180 167 163 155 152 151 152 150 147 149 155 148 145 163 178 184 250 270 307 327 318 332 343
161 208 183 167 177 187 236 221 228 237 306 270 257 311 264 235 213 203 198 190 186 181 176 170 163 162 157 157 159 157 160 159 154 141 109 66 48 23 1 335 320 302 295 305
191 226 165 168 187 171 231 238 230 234 64 296 162 273 284 230 195 201 202 192 185 183 175 170 167 166 167 167 160 154 160 158 155 142 126 125 132 193 248 257 278 298 300 301
235 176 155 185 204 182 216 227 210 217 126 348 345 144 293 225 201 214 210 197 187 180 174 172 174 174 171 166 159 156 155 158 159 148 146 142 154 217 259 286 310 313 308 304
245 196 162 194 219 196 156 58 33 43 67 349 268 155 271 234 213 204 204 195 182 174 172 172 171 164 164 161 155 154 153 162 164 155 154 157 171 194 232 299 309 309 305 309
352 345 221 165 79 20 81 83 38 14 14 274 277 155 249 254 226 193 188 187 177 170 167 166 165 168 168 167 164 160 158 167 175 167 171 177 186 187 202 232 246 271 288 293
51 311 246 191 166 162 151 130 144 167 240 294 347 263 271 287 233 168 168 168 167 172 174 176 177 176 177 174 169 166 168 174 180 177 185 190 193 189 212 227 229 245 252 264
154 276 286 225 175 139 125 154 163 136 131 351 324 313 322 2 63 138 156 162 175 182 183 182 181 181 179 177 178 176 175 178 184 183 181 188 195 194 214 235 240 253 263 279
149 235 302 283 47 33 148 148 97 103 115 11 330 286 240 239 221 195 183 186 192 189 187 185 184 184 184 184 183 179 178 182 185 183 183 187 196 203 211 214 254 271 283 308
105 111 331 9 189 217 102 91 103 113 144 141 270 278 239 218 214 205 206 201 195 194 192 189 190 188 184 181 179 181 185 182 183 185 187 182 195 203 195 203 242 257 267 279
82 110 332 283 276 224 169 163 139 134 224 154 165 269 280 239 226 208 214 212 204 197 194 189 185 180 180 184 185 187 187 186 188 185 179 183 187 186 191 221 247 248 248 261
91 94 49 351 344 351 337 191 146 135 121 142 159 269 299 312 266 232 219 216 208 198 190 185 180 183 188 190 190 192 190 189 185 177 173 178 184 189 204 226 240 237 233 256
103 106 154 192 235 259 284 281 179 129 146 204 216 248 290 290 273 264 240 216 201 195 191 189 191 195 195 193 192 192 194 189 181 176 176 183 193 198 206 216 219 221 202 178
88 125 232 245 259 252 256 264 252 206 194 196 232 237 259 256 240 241 232 204 192 200 200 198 198 200 198 195 195 194 194 190 182 177 183 195 198 197 197 201 205 210 195 183
49 101 355 325 315 318 299 285 267 247 221 216 238 268 267 257 239 236 215 191 198 212 213 208 204 201 199 198 196 194 194 191 182 184 193 195 189 190 193 196 198 199 207 201
360 107 57 297 310 353 306 270 243 246 255 200 222 251 273 290 186 189 193 188 208 220 216 208 206 205 205 204 196 194 196 186 184 190 194 191 188 190 198 197 191 202 214 204
180 128 137 273 4 277 259 282 189 130 5 347 264 277 273 222 203 185 187 196 225 231 217 216 212 211 208 202 196 193 184 181 187 192 195 194 189 193 196 192 199 209 206 202
175 154 138 128 252 287 304 313 307 138 5 350 5 358 356 17 44 2 336 275 234 231 221 215 211 207 200 196 191 182 183 185 189 195 198 197 192 191 191 196 205 204 196 203
102 113 128 136 170 242 273 303 314 94 9 333 9 25 17 50 44 303 310 313 298 286 253 233 208 186 193 199 181 177 188 189 199 203 202 196 191 191 195 200 201 195 189 198
39 63 146 182 212 258 283 309 31 87 263 304 6 35 43 93 228 270 310 331 326 307 286 281 192 194 207 194 175 185 192 202 207 202 195 192 193 195 196 194 190 183 181 179
193 158 197 150 185 258 318 23 83 226 258 312 4 13 18 328 316 325 338 343 342 336 316 303 233 233 220 186 179 193 207 211 197 187 190 195 197 197 191 179 182 176 171 173
193 190 198 192 212 243 325 343 285 213 296 322 338 342 359 353 334 327 323 326 327 326 317 299 251 245 242 205 190 203 216 201 184 183 191 196 194 193 182 179 181 176 173 177
298 4 95 311 288 306 328 360 357 359 352 338 347 357 5 346 329 327 324 322 323 321 318 311 289 257 252 235 217 215 209 190 184 191 195 189 185 187 185 183 182 181 184 186
265 333 336 283 282 315 334 337 334 348 354 350 342 339 343 341 325 320 317 313 309 308 307 304 276 258 253 242 231 221 193 179 188 195 195 190 186 181 181 183 190 190 198 196
226 218 224 250 253 241 272 284 310 339 337 329 331 330 327 324 312 313 308 303 302 304 305 305 292 276 266 249 237 223 199 184 184 192 194 191 186 183 178 172 178 207 202 198
Height
1484 1491 1497 1496 1494 1497 1499 1501 1502 1497 1490 1492 1494 1493 1488 1487 1489 1490 1491 1492 1494 1496 1499 1501 1502 1504 1505 1506 1506 1507 1507 1507 1507 1506 1506 1505 1504 1503 1502 1501 1499 1497 1496 1494
1490 1494 1489 1489 1491 1494 1497 1501 1500 1494 1488 1491 1493 1491 1486 1484 1485 1486 1487 1489 1491 1494 1497 1499 1501 1502 1504 1504 1505 1505 1506 1506 1506 1505 1505 1504 1503 1502 1501 1500 1498 1497 1495 1494
1490 1488 1484 1488 1491 1495 1496 1499 1497 1495 1489 1488 1493 1494 1488 1483 1483 1484 1485 1486 1488 1490 1493 1496 1499 1501 1502 1503 1503 1504 1504 1505 1505 1504 1504 1503 1503 1502 1501 1499 1498 1496 1495 1493
1487 1484 1484 1488 1491 1492 1499 1489 1489 1490 1497 1502 1496 1508 1492 1485 1484 1483 1483 1484 1486 1488 1491 1494 1496 1498 1500 1501 1502 1503 1503 1503 1503 1503 1503 1502 1502 1501 1500 1499 1497 1496 1494 1493
1487 1483 1485 1488 1487 1487 1490 1484 1487 1490 1497 1503 1499 1506 1499 1486 1487 1483 1481 1482 1483 1485 1488 1491 1494 1496 1498 1500 1501 1501 1502 1502 1502 1502 1502 1502 1501 1500 1499 1498 1497 1496 1494 1492
1483 1481 1482 1483 1481 1481 1483 1488 1492 1497 1504 1513 1502 1507 1503 1491 1483 1479 1479 1480 1481 1484 1487 1490 1492 1495 1497 1498 1499 1500 1500 1501 1501 1501 1501 1501 1500 1499 1499 1498 1496 1495 1494 1492
1488 1484 1480 1480 1484 1484 1487 1501 1516 1518 1523 1517 1500 1502 1498 1480 1474 1474 1475 1478 1480 1483 1485 1488 1490 1493 1494 1496 1497 1498 1499 1499 1500 1500 1500 1500 1499 1499 1498 1497 1496 1495 1493 1492
1498 1498 1483 1479 1482 1487 1489 1498 1517 1525 1525 1517 1502 1503 1490 1475 1471 1471 1474 1476 1479 1482 1483 1486 1488 1490 1492 1493 1495 1496 1497 1498 1498 1498 1499 1499 1499 1498 1497 1497 1496 1495 1493 1492
1497 1496 1479 1476 1476 1480 1490 1497 1498 1511 1514 1519 1511 1498 1484 1475 1474 1474 1475 1477 1478 1480 1482 1483 1486 1488 1489 1491 1493 1494 1495 1496 1497 1497 1497 1497 1498 1497 1497 1496 1495 1495 1493 1492
1487 1493 1483 1477 1477 1478 1483 1489 1502 1511 1521 1525 1514 1504 1499 1483 1479 1476 1476 1476 1477 1478 1480 1482 1483 1485 1487 1489 1491 1492 1493 1494 1495 1496 1496 1496 1496 1496 1496 1495 1495 1494 1493 1492
1483 1494 1490 1483 1484 1486 1486 1490 1499 1510 1513 1523 1523 1512 1482 1478 1475 1475 1474 1473 1474 1476 1477 1479 1481 1483 1485 1487 1489 1490 1491 1492 1493 1494 1495 1495 1495 1495 1495 1495 1494 1494 1493 1492
1484 1495 1499 1490 1480 1476 1480 1485 1495 1508 1511 1514 1519 1510 1474 1473 1471 1471 1471 1472 1472 1473 1475 1477 1479 1481 1483 1485 1486 1488 1489 1490 1491 1492 1493 1493 1494 1494 1494 1494 1493 1493 1492 1492
1484 1496 1508 1505 1496 1484 1481 1480 1486 1496 1506 1513 1517 1504 1473 1472 1470 1470 1469 1470 1471 1472 1473 1475 1477 1478 1480 1482 1483 1485 1487 1488 1489 1490 1491 1492 1492 1492 1492 1493 1493 1492 1492 1491
1482 1494 1504 1508 1501 1490 1487 1482 1482 1492 1506 1507 1502 1493 1478 1473 1471 1469 1468 1467 1468 1470 1471 1472 1474 1475 1477 1479 1481 1482 1484 1486 1487 1488 1489 1490 1490 1491 1491 1491 1491 1491 1491 1490
1484 1493 1492 1490 1485 1484 1483 1482 1480 1485 1490 1497 1490 1485 1477 1471 1469 1467 1466 1466 1467 1468 1469 1470 1471 1472 1474 1476 1478 1479 1481 1483 1485 1486 1487 1488 1488 1489 1490 1490 1490 1490 1490 1489
1486 1491 1491 1491 1483 1483 1483 1479 1478 1478 1479 1482 1481 1480 1469 1466 1466 1466 1465 1465 1465 1466 1466 1467 1468 1470 1471 1473 1474 1476 1478 1480 1482 1483 1484 1486 1486 1487 1488 1488 1488 1489 1488 1488
1490 1493 1498 1501 1491 1486 1491 1480 1477 1477 1474 1476 1481 1476 1467 1466 1465 1465 1465 1464 1464 1464 1464 1465 1466 1467 1468 1470 1471 1473 1475 1477 1479 1480 1481 1483 1484 1485 1485 1486 1487 1487 1487 1487
1489 1493 1501 1503 1498 1502 1489 1472 1471 1474 1474 1472 1471 1469 1466 1465 1464 1464 1464 1464 1464 1463 1464 1464 1464 1465 1466 1467 1469 1471 1473 1474 1476 1477 1478 1480 1481 1482 1483 1484 1484 1485 1485 1485
1481 1489 1500 1506 1505 1499 1484 1474 1472 1474 1477 1473 1471 1469 1466 1465 1464 1464 1464 1464 1463 1463 1462 1462 1462 1463 1464 1465 1466 1468 1469 1471 1472 1474 1475 1476 1478 1479 1480 1481 1481 1482 1483 1483
1481 1486 1497 1504 1504 1505 1490 1474 1469 1472 1482 1475 1472 1470 1468 1466 1472 1469 1465 1463 1462 1461 1461 1461 1461 1461 1462 1462 1463 1464 1466 1467 1468 1470 1471 1473 1474 1476 1477 1478 1479 1480 1480 1481
1489 1492 1498 1502 1503 1496 1482 1474 1471 1488 1488 1476 1473 1471 1469 1469 1470 1468 1465 1463 1461 1460 1459 1459 1459 1459 1459 1460 1461 1461 1462 1463 1464 1466 1468 1470 1471 1472 1473 1475 1476 1476 1477 1478
1493 1496 1499 1502 1504 1500 1480 1476 1481 1483 1477 1475 1473 1471 1470 1469 1467 1465 1464 1462 1460 1459 1458 1457 1456 1456 1457 1457 1458 1458 1458 1459 1461 1463 1464 1466 1467 1468 1470 1471 1472 1473 1474 1475
1491 1491 1492 1493 1493 1483 1480 1479 1478 1477 1476 1474 1473 1471 1469 1468 1466 1464 1462 1461 1459 1458 1456 1455 1454 1453 1454 1454 1454 1454 1455 1456 1457 1458 1460 1461 1463 1464 1465 1467 1468 1469 1470 1471
1488 1486 1487 1488 1483 1481 1479 1478 1477 1476 1475 1474 1472 1470 1468 1467 1465 1463 1461 1459 1457 1456 1454 1452 1451 1450 1450 1450 1450 1451 1451 1452 1453 1454 1455 1456 1458 1459 1460 1462 1463 1464 1465 1466
1488 1486 1487 1487 1482 1479 1478 1478 1476 1475 1474 1472 1470 1469 1467 1465 1463 1461 1459 1457 1455 1453 1452 1450 1448 1447 1446 1446 1446 1446 1447 1448 1448 1449 1450 1451 1453 1454 1455 1456 1458 1459 1460 1461
1483 1484 1486 1484 1479 1479 1477 1475 1474 1472 1471 1470 1468 1466 1465 1463 1461 1459 1456 1454 1452 1450 1448 1446 1444 1443 1442 1441 1441 1441 1442 1442 1443 1444 1444 1446 1447 1448 1450 1451 1452 1454 1455 1457